Tracking 35274 objects as of 12-Sep-2026
HD Live streaming from Space Station
objects crossing your sky now

COSMOS 57 DEB


COSMOS 57 DEB is no longer on orbit


NORAD ID: 1107
Int'l Code: 1965-012K
Launch date: February 22, 1965
Source: Commonwealth of Independent States (former USSR) (CIS)
Launch site: TYURATAM MISSILE AND SPACE COMPLEX (TTMTR)
Decay date: 1965-02-25

Note: This is SATELLITE DEBRIS
Your satellite tracking list
Your tracking list is empty




NASA's NSSDC Master Catalog

Two Line Element Set (TLE):
1 01107U 65012  K 65056.13999747  .00587072 +10935-2 +00000-0 0  9993
2 01107 064.7472 289.1279 0076650 047.3313 313.3573 16.38768401000463
Source of the keplerian elements: AFSPC